Location: ???? ???? ?????
(31.2680°N, 31.7283°E)
Time: 19:52:37
(UTC+00:00)

Cosmos 2221 - Pass Details

Date: 13 July 2020
Orbit: 592 x 616 km, 82.5° (Epoch: 06 August)

Event Time Altitude Azimuth Distance (km) Brightness Sun altitude
Rises 19:25:05 0° 350° (N) 2,868 6.9 -25.5°
Reaches altitude 10° 19:27:19 10° 348° (NNW) 1,957 5.9 -25.8°
Enters shadow 19:31:12 62° 300° (WNW) 681 2.9 -26.3°
